| time (UTC) | temp F | wind direction | speed MPH | gust MPH | rain 1hr in | rain 24hr in | rain mn in | humidity % | barometer mb |
| 20260504050015 | 102 | 0 | 0.0 | 0.0 | 0.00 | 0.00 | 0.00 | 29 | 952.0 |
| 20260504044951 | 99 | 0 | 0.0 | 0.0 | 0.00 | 0.00 | 0.00 | 31 | 953.0 |
| 20260504043926 | 99 | 0 | 0.0 | 0.0 | 0.00 | 0.00 | 0.00 | 32 | 953.0 |
| 20260504042902 | 101 | 0 | 0.0 | 0.0 | 0.00 | 0.00 | 0.00 | 32 | 953.0 |
| 20260504041838 | 99 | 0 | 0.0 | 0.0 | 0.00 | 0.00 | 0.00 | 33 | 953.0 |
| 20260504040814 | 98 | 0 | 0.0 | 0.0 | 0.00 | 0.00 | 0.00 | 34 | 953.0 |
| 20260504035749 | 97 | 0 | 0.0 | 0.0 | 0.00 | 0.00 | 0.00 | 35 | 953.0 |
| 20260504034724 | 99 | 0 | 0.0 | 0.0 | 0.00 | 0.00 | 0.00 | 33 | 953.0 |
| 20260504033700 | 97 | 0 | 0.0 | 0.0 | 0.00 | 0.00 | 0.00 | 35 | 953.0 |
| 20260504032636 | 98 | 0 | 0.0 | 0.0 | 0.00 | 0.00 | 0.00 | 35 | 953.0 |
| 20260504031612 | 94 | 0 | 0.0 | 0.0 | 0.00 | 0.00 | 0.00 | 40 | 953.0 |
| 20260504030548 | 93 | 0 | 0.0 | 0.0 | 0.00 | 0.00 | 0.00 | 41 | 953.0 |
| 20260504025523 | 93 | 0 | 0.0 | 0.0 | 0.00 | 0.00 | 0.00 | 38 | 953.0 |
| 20260504024459 | 92 | 0 | 0.0 | 0.0 | 0.00 | 0.00 | 0.00 | 42 | 953.0 |
| 20260504023435 | 92 | 0 | 0.0 | 0.0 | 0.00 | 0.00 | 0.00 | 42 | 954.0 |
| 20260504022411 | 93 | 0 | 0.0 | 0.0 | 0.00 | 0.00 | 0.00 | 39 | 954.0 |
| 20260504021347 | 92 | 0 | 0.0 | 0.0 | 0.00 | 0.00 | 0.00 | 42 | 954.0 |
| 20260504020323 | 93 | 0 | 0.0 | 0.0 | 0.00 | 0.00 | 0.00 | 43 | 953.0 |
| 20260504015259 | 92 | 0 | 0.0 | 0.0 | 0.00 | 0.00 | 0.00 | 44 | 953.0 |
| 20260504014235 | 90 | 0 | 0.0 | 0.0 | 0.00 | 0.00 | 0.00 | 47 | 953.0 |
| 20260504013210 | 89 | 0 | 0.0 | 0.0 | 0.00 | 0.00 | 0.00 | 48 | 953.0 |
| 20260504012146 | 89 | 0 | 0.0 | 0.0 | 0.00 | 0.00 | 0.00 | 46 | 953.0 |
| 20260504011122 | 87 | 0 | 0.0 | 0.0 | 0.00 | 0.00 | 0.00 | 47 | 953.0 |
| 20260504010058 | 85 | 0 | 0.0 | 0.0 | 0.00 | 0.00 | 0.00 | 51 | 953.0 |
| 20260504005034 | 84 | 0 | 0.0 | 0.0 | 0.00 | 0.00 | 0.00 | 52 | 953.0 |
| 20260504004010 | 83 | 0 | 0.0 | 0.0 | 0.00 | 0.00 | 0.00 | 54 | 953.0 |
| 20260504002946 | 82 | 0 | 0.0 | 0.0 | 0.00 | 0.00 | 0.00 | 55 | 953.0 |
| 20260504001922 | 81 | 0 | 0.0 | 0.0 | 0.00 | 0.00 | 0.00 | 55 | 953.0 |
| 20260504000857 | 81 | 0 | 0.0 | 0.0 | 0.00 | 0.00 | 0.00 | 56 | 953.0 |
| 20260503235833 | 80 | 0 | 0.0 | 0.0 | 0.00 | 0.00 | 0.00 | 57 | 952.0 |
| 20260503234802 | 80 | 0 | 0.0 | 0.0 | 0.00 | 0.00 | 0.00 | 57 | 952.0 |
| 20260503233738 | 80 | 0 | 0.0 | 0.0 | 0.00 | 0.00 | 0.00 | 56 | 952.0 |
| 20260503232714 | 80 | 0 | 0.0 | 0.0 | 0.00 | 0.00 | 0.00 | 55 | 952.0 |
| 20260503231650 | 80 | 0 | 0.0 | 0.0 | 0.00 | 0.00 | 0.00 | 56 | 952.0 |
| 20260503230626 | 79 | 0 | 0.0 | 0.0 | 0.00 | 0.00 | 0.00 | 57 | 952.0 |
| 20260503225602 | 80 | 0 | 0.0 | 0.0 | 0.00 | 0.00 | 0.00 | 56 | 952.0 |
| 20260503224538 | 80 | 0 | 0.0 | 0.0 | 0.00 | 0.00 | 0.00 | 56 | 952.0 |
| 20260503223513 | 80 | 0 | 0.0 | 0.0 | 0.00 | 0.00 | 0.00 | 55 | 952.0 |
| 20260503222449 | 80 | 0 | 0.0 | 0.0 | 0.00 | 0.00 | 0.00 | 56 | 952.0 |
| 20260503221424 | 80 | 0 | 0.0 | 0.0 | 0.00 | 0.00 | 0.00 | 56 | 952.0 |
| 20260503220352 | 80 | 0 | 0.0 | 0.0 | 0.00 | 0.00 | 0.00 | 55 | 951.0 |
| 20260503215328 | 80 | 0 | 0.0 | 0.0 | 0.00 | 0.00 | 0.00 | 56 | 951.0 |
| 20260503214304 | 79 | 0 | 0.0 | 0.0 | 0.00 | 0.00 | 0.00 | 57 | 951.0 |
| 20260503213239 | 80 | 0 | 0.0 | 0.0 | 0.00 | 0.00 | 0.00 | 57 | 951.0 |
| 20260503212215 | 81 | 0 | 0.0 | 0.0 | 0.00 | 0.00 | 0.00 | 55 | 951.0 |
| 20260503211151 | 81 | 0 | 0.0 | 0.0 | 0.00 | 0.00 | 0.00 | 54 | 951.0 |
| 20260503210127 | 81 | 0 | 0.0 | 0.0 | 0.00 | 0.00 | 0.00 | 54 | 951.0 |
| 20260503205103 | 81 | 0 | 0.0 | 0.0 | 0.00 | 0.00 | 0.00 | 54 | 951.0 |
| 20260503204039 | 81 | 0 | 0.0 | 0.0 | 0.00 | 0.00 | 0.00 | 53 | 951.0 |
| 20260503203015 | 82 | 0 | 0.0 | 0.0 | 0.00 | 0.00 | 0.00 | 53 | 951.0 |
| 20260503201950 | 82 | 0 | 0.0 | 0.0 | 0.00 | 0.00 | 0.00 | 53 | 951.0 |
| 20260503200926 | 82 | 0 | 0.0 | 0.0 | 0.00 | 0.00 | 0.00 | 52 | 951.0 |
| 20260503195902 | 83 | 0 | 0.0 | 0.0 | 0.00 | 0.00 | 0.00 | 52 | 951.0 |
| 20260503194838 | 83 | 0 | 0.0 | 0.0 | 0.00 | 0.00 | 0.00 | 51 | 951.0 |
| 20260503193814 | 83 | 0 | 0.0 | 0.0 | 0.00 | 0.00 | 0.00 | 51 | 951.0 |
| 20260503192749 | 83 | 0 | 0.0 | 0.0 | 0.00 | 0.00 | 0.00 | 50 | 951.0 |
| 20260503191725 | 84 | 0 | 0.0 | 0.0 | 0.00 | 0.00 | 0.00 | 50 | 951.0 |
| 20260503190701 | 84 | 0 | 0.0 | 0.0 | 0.00 | 0.00 | 0.00 | 50 | 951.0 |
| 20260503185637 | 84 | 0 | 0.0 | 0.0 | 0.00 | 0.00 | 0.00 | 50 | 951.0 |
| 20260503184614 | 84 | 0 | 0.0 | 0.0 | 0.00 | 0.00 | 0.00 | 50 | 951.0 |
| 20260503183551 | 83 | 0 | 0.0 | 0.0 | 0.00 | 0.00 | 0.00 | 50 | 951.0 |
| 20260503182522 | 84 | 0 | 0.0 | 0.0 | 0.00 | 0.00 | 0.00 | 50 | 951.0 |
| 20260503182256 | 84 | 0 | 0.0 | 0.0 | 0.00 | 0.00 | 0.00 | 50 | 951.0 |
| 20260503181232 | 84 | 0 | 0.0 | 0.0 | 0.00 | 0.00 | 0.00 | 50 | 951.0 |
| 20260503180208 | 84 | 0 | 0.0 | 0.0 | 0.00 | 0.00 | 0.00 | 50 | 951.0 |
| 20260503175144 | 83 | 0 | 0.0 | 0.0 | 0.00 | 0.00 | 0.00 | 51 | 951.0 |
| 20260503174120 | 83 | 0 | 0.0 | 0.0 | 0.00 | 0.00 | 0.00 | 52 | 951.0 |
| 20260503173056 | 83 | 0 | 0.0 | 0.0 | 0.00 | 0.00 | 0.00 | 53 | 951.0 |
| 20260503172031 | 84 | 0 | 0.0 | 0.0 | 0.00 | 0.00 | 0.00 | 51 | 951.0 |
| 20260503171007 | 84 | 0 | 0.0 | 0.0 | 0.00 | 0.00 | 0.00 | 51 | 951.0 |
| 20260503150518 | 86 | 0 | 0.0 | 0.0 | 0.00 | 0.00 | 0.00 | 47 | 951.0 |
| 20260503140252 | 89 | 0 | 0.0 | 0.0 | 0.00 | 0.00 | 0.00 | 46 | 950.0 |
| 20260503131049 | 89 | 0 | 0.0 | 0.0 | 0.00 | 0.00 | 0.00 | 41 | 949.0 |
| 20260503110559 | 93 | 0 | 0.0 | 0.0 | 0.00 | 0.00 | 0.00 | 37 | 947.0 |
| 20260503090110 | 95 | 0 | 0.0 | 0.0 | 0.00 | 0.00 | 0.00 | 33 | 948.0 |
| 20260503080909 | 96 | 0 | 0.0 | 0.0 | 0.00 | 0.00 | 0.00 | 32 | 948.0 |
| 20260503072732 | 100 | 0 | 0.0 | 0.0 | 0.00 | 0.00 | 0.00 | 29 | 949.0 |
| 20260503071708 | 98 | 0 | 0.0 | 0.0 | 0.00 | 0.00 | 0.00 | 30 | 949.0 |
| 20260503070644 | 99 | 0 | 0.0 | 0.0 | 0.00 | 0.00 | 0.00 | 30 | 949.0 |
| 20260503054331 | 102 | 0 | 0.0 | 0.0 | 0.00 | 0.00 | 0.00 | 29 | 951.0 |